RDN15 KJAC-KEGE

Flight info

Callsign RDN15
Flight time 0h 57m
Altitude 37000
Route ALPIN5 BPI HYPPE AAVON1
Aircraft B737/M-SDE2E3FGHIRWXY/LB1

Departure

Time 2026-04-28 18:24
Airport Jackson Hole Airport (KJAC)

Arrival

Time 2026-04-28 19:22
Airport Eagle County Regional Airport (KEGE)
Time Latitude Longitude Altitude Speed Heading
2026-04-28 18:10 43.60420 -110.73608 6459 ft 0 kts 109°
2026-04-28 18:20 43.60419 -110.73606 6459 ft 2 kts 109°
2026-04-28 18:20 43.60408 -110.73598 6459 ft 1 kts 191°
2026-04-28 18:20 43.60405 -110.73602 6459 ft 1 kts 229°
2026-04-28 18:20 43.60418 -110.73672 6459 ft 16 kts 308°
2026-04-28 18:21 43.60514 -110.73707 6459 ft 17 kts 21°
2026-04-28 18:21 43.60644 -110.73646 6459 ft 23 kts 18°
2026-04-28 18:21 43.60813 -110.73566 6459 ft 27 kts 15°
2026-04-28 18:21 43.60980 -110.73481 6459 ft 24 kts 20°
2026-04-28 18:22 43.61132 -110.73407 6459 ft 22 kts 20°
2026-04-28 18:22 43.61319 -110.73317 6459 ft 33 kts 20°
2026-04-28 18:22 43.61475 -110.73245 6459 ft 11 kts
2026-04-28 18:22 43.61517 -110.73328 6459 ft 14 kts 289°
2026-04-28 18:23 43.61515 -110.73394 6459 ft 1 kts 199°
2026-04-28 18:23 43.61468 -110.73417 6459 ft 29 kts 199°
2026-04-28 18:23 43.61086 -110.73604 6459 ft 86 kts 198°
2026-04-28 18:23 43.60356 -110.73958 6459 ft 135 kts 199°
2026-04-28 18:24 43.59401 -110.74434 6746 ft 150 kts 201°
2026-04-28 18:24 43.58750 -110.74781 7077 ft 155 kts 202°
2026-04-28 18:24 43.57350 -110.75690 7543 ft 177 kts 211°
2026-04-28 18:24 43.56321 -110.76489 8292 ft 164 kts 212°
2026-04-28 18:25 43.55323 -110.77305 8715 ft 177 kts 212°
2026-04-28 18:25 43.54201 -110.78227 8992 ft 198 kts 212°
2026-04-28 18:25 43.52957 -110.79252 9264 ft 220 kts 212°
2026-04-28 18:26 43.49957 -110.81342 9786 ft 259 kts 206°
2026-04-28 18:26 43.48303 -110.82354 10370 ft 269 kts 207°
2026-04-28 18:26 43.46547 -110.83434 10961 ft 285 kts 207°
2026-04-28 18:26 43.44674 -110.84591 11400 ft 305 kts 207°
2026-04-28 18:27 43.42676 -110.85834 11817 ft 326 kts 207°
2026-04-28 18:27 43.40562 -110.87151 12395 ft 339 kts 207°
2026-04-28 18:27 43.38383 -110.88510 13166 ft 346 kts 207°
2026-04-28 18:27 43.36168 -110.89893 14006 ft 352 kts 207°
2026-04-28 18:28 43.33928 -110.91290 14894 ft 356 kts 207°
2026-04-28 18:28 43.31653 -110.92709 15786 ft 361 kts 207°
2026-04-28 18:28 43.29353 -110.94143 16655 ft 366 kts 208°
2026-04-28 18:28 43.27016 -110.95598 17506 ft 371 kts 208°
2026-04-28 18:29 43.24572 -110.96844 18327 ft 380 kts 196°
2026-04-28 18:29 43.21906 -110.97092 19216 ft 389 kts 179°
2026-04-28 18:29 43.19234 -110.96231 19967 ft 401 kts 161°
2026-04-28 18:29 43.16825 -110.94334 20655 ft 411 kts 143°
2026-04-28 18:30 43.14828 -110.91499 21369 ft 418 kts 128°
2026-04-28 18:30 43.14250 -110.90408 21612 ft 419 kts 125°
2026-04-28 18:30 43.12102 -110.86295 22472 ft 425 kts 128°
2026-04-28 18:30 43.10216 -110.83134 23118 ft 430 kts 132°
2026-04-28 18:31 43.08244 -110.80103 23743 ft 433 kts 134°
2026-04-28 18:31 43.06135 -110.77071 24384 ft 437 kts 136°
2026-04-28 18:31 43.04019 -110.74118 24967 ft 441 kts 136°
2026-04-28 18:31 43.01860 -110.71123 25558 ft 444 kts 136°
2026-04-28 18:32 42.99680 -110.68112 26139 ft 447 kts 137°
2026-04-28 18:32 42.97485 -110.65082 26699 ft 450 kts 136°
2026-04-28 18:32 42.95288 -110.62007 27254 ft 453 kts 137°
2026-04-28 18:32 42.93072 -110.58927 27759 ft 456 kts 137°
2026-04-28 18:33 42.90835 -110.55836 28253 ft 459 kts 137°
2026-04-28 18:33 42.88579 -110.52728 28726 ft 462 kts 137°
2026-04-28 18:33 42.86318 -110.49621 29153 ft 465 kts 137°
2026-04-28 18:33 42.84022 -110.46471 29583 ft 468 kts 137°
2026-04-28 18:34 42.81722 -110.43321 30023 ft 470 kts 137°
2026-04-28 18:34 42.79413 -110.40134 30454 ft 472 kts 137°
2026-04-28 18:34 42.77105 -110.36953 30880 ft 474 kts 137°
2026-04-28 18:34 42.74774 -110.33766 31238 ft 476 kts 137°
2026-04-28 18:35 42.72424 -110.30569 31584 ft 479 kts 137°
2026-04-28 18:35 42.70056 -110.27355 32005 ft 479 kts 137°
2026-04-28 18:35 42.67699 -110.24160 32463 ft 478 kts 137°
2026-04-28 18:35 42.65352 -110.20982 32882 ft 478 kts 137°
2026-04-28 18:36 42.62996 -110.17794 33301 ft 477 kts 137°
2026-04-28 18:36 42.60603 -110.14718 33820 ft 471 kts 143°
2026-04-28 18:36 42.57966 -110.12141 34245 ft 466 kts 152°
2026-04-28 18:36 42.55082 -110.10133 34605 ft 462 kts 160°
2026-04-28 18:37 42.52084 -110.08599 34981 ft 460 kts 164°
2026-04-28 18:37 42.49041 -110.07283 35335 ft 458 kts 166°
2026-04-28 18:37 42.45982 -110.06062 35689 ft 458 kts 167°
2026-04-28 18:37 42.42939 -110.04850 36042 ft 457 kts 167°
2026-04-28 18:38 42.39896 -110.03636 36376 ft 456 kts 166°
2026-04-28 18:38 42.37873 -110.02828 36562 ft 457 kts 166°
2026-04-28 18:38 42.34824 -110.01609 36884 ft 456 kts 166°
2026-04-28 18:38 42.31784 -110.00394 37198 ft 455 kts 166°
2026-04-28 18:39 42.28748 -109.99181 37482 ft 455 kts 166°
2026-04-28 18:39 42.25708 -109.97967 37802 ft 454 kts 166°
2026-04-28 18:39 42.22687 -109.96747 38105 ft 453 kts 166°
2026-04-28 18:39 42.19668 -109.95529 38356 ft 453 kts 166°
2026-04-28 18:40 42.16650 -109.94316 38702 ft 451 kts 166°
2026-04-28 18:40 42.13640 -109.93110 38931 ft 451 kts 166°
2026-04-28 18:40 42.10630 -109.91906 39132 ft 452 kts 166°
2026-04-28 18:41 42.04585 -109.89495 39212 ft 453 kts 166°
2026-04-28 18:41 41.98551 -109.87094 39202 ft 451 kts 167°
2026-04-28 18:42 41.92533 -109.84706 39202 ft 451 kts 167°
2026-04-28 18:42 41.86513 -109.82321 39202 ft 451 kts 167°
2026-04-28 18:43 41.80437 -109.79918 39205 ft 458 kts 167°
2026-04-28 18:43 41.74348 -109.77515 39204 ft 459 kts 167°
2026-04-28 18:44 41.68223 -109.75103 39205 ft 460 kts 167°
2026-04-28 18:44 41.59009 -109.71483 39205 ft 461 kts 167°
2026-04-28 18:45 41.52841 -109.69066 39207 ft 460 kts 167°
2026-04-28 18:45 41.46682 -109.66658 39202 ft 463 kts 167°
2026-04-28 18:46 41.40492 -109.64243 39201 ft 463 kts 167°
2026-04-28 18:46 41.34323 -109.61840 39202 ft 461 kts 167°
2026-04-28 18:47 41.28163 -109.59444 39201 ft 462 kts 167°
2026-04-28 18:47 41.21975 -109.57044 39201 ft 463 kts 167°
2026-04-28 18:48 41.15800 -109.54653 39201 ft 463 kts 167°
2026-04-28 18:48 41.09654 -109.52022 39200 ft 467 kts 160°
2026-04-28 18:49 41.04897 -109.48549 39201 ft 474 kts 148°
2026-04-28 18:49 40.98830 -109.42231 39201 ft 474 kts 144°
2026-04-28 18:50 40.93704 -109.36736 39201 ft 474 kts 144°
2026-04-28 18:50 40.88570 -109.31249 39201 ft 474 kts 144°
2026-04-28 18:51 40.83438 -109.25776 39200 ft 475 kts 144°
2026-04-28 18:51 40.78295 -109.20304 39201 ft 475 kts 144°
2026-04-28 18:52 40.73164 -109.14798 39201 ft 476 kts 144°
2026-04-28 18:52 40.68055 -109.09334 39201 ft 475 kts 144°
2026-04-28 18:53 40.62887 -109.03838 39201 ft 474 kts 144°
2026-04-28 18:53 40.57746 -108.98387 39201 ft 475 kts 144°
2026-04-28 18:54 40.52636 -108.92982 39201 ft 474 kts 144°
2026-04-28 18:54 40.47492 -108.87554 39200 ft 475 kts 144°
2026-04-28 18:55 40.43212 -108.83046 39201 ft 475 kts 144°
2026-04-28 18:55 40.37185 -108.76710 39201 ft 474 kts 144°
2026-04-28 18:56 40.32038 -108.71310 39201 ft 473 kts 145°
2026-04-28 18:56 40.26903 -108.65934 39200 ft 473 kts 145°
2026-04-28 18:57 40.21757 -108.60556 39201 ft 473 kts 145°
2026-04-28 18:57 40.16599 -108.55177 39201 ft 474 kts 145°
2026-04-28 18:58 40.11443 -108.49810 39177 ft 475 kts 145°
2026-04-28 18:58 40.08847 -108.47112 38914 ft 477 kts 145°
2026-04-28 18:58 40.06258 -108.44423 38561 ft 476 kts 146°
2026-04-28 18:59 40.03661 -108.41728 38101 ft 476 kts 146°
2026-04-28 18:59 40.01076 -108.39038 37579 ft 475 kts 146°
2026-04-28 18:59 39.98495 -108.36340 37008 ft 475 kts 146°
2026-04-28 18:59 39.95903 -108.33651 36408 ft 477 kts 146°
2026-04-28 19:00 39.93259 -108.30922 35800 ft 479 kts 147°
2026-04-28 19:00 39.92686 -108.30330 35668 ft 480 kts 147°
2026-04-28 19:00 39.89982 -108.27545 35050 ft 482 kts 147°
2026-04-28 19:00 39.87349 -108.24835 34451 ft 485 kts 147°
2026-04-28 19:01 39.84685 -108.22089 33849 ft 490 kts 147°
2026-04-28 19:01 39.82256 -108.18899 33243 ft 505 kts 133°
2026-04-28 19:01 39.80411 -108.14958 32642 ft 518 kts 119°
2026-04-28 19:01 39.79264 -108.10468 32039 ft 528 kts 105°
2026-04-28 19:02 39.78902 -108.05696 31443 ft 535 kts 90°
2026-04-28 19:02 39.79354 -108.00896 30841 ft 537 kts 76°
2026-04-28 19:02 39.80590 -107.96318 30239 ft 536 kts 62°
2026-04-28 19:02 39.82479 -107.92177 29648 ft 532 kts 52°
2026-04-28 19:03 39.84511 -107.88133 29051 ft 535 kts 55°
2026-04-28 19:03 39.86300 -107.83871 28451 ft 539 kts 60°
2026-04-28 19:03 39.87878 -107.79434 27852 ft 543 kts 63°
2026-04-28 19:03 39.89346 -107.74888 27251 ft 545 kts 64°
2026-04-28 19:04 39.90843 -107.70337 26649 ft 546 kts 63°
2026-04-28 19:04 39.92384 -107.65802 26047 ft 547 kts 63°
2026-04-28 19:04 39.93853 -107.61384 25464 ft 547 kts 63°
2026-04-28 19:04 39.95351 -107.56833 24862 ft 543 kts 63°
2026-04-28 19:05 39.96827 -107.52331 24261 ft 538 kts 63°
2026-04-28 19:05 39.98285 -107.47872 23661 ft 533 kts 63°
2026-04-28 19:05 39.99730 -107.43443 23059 ft 526 kts 63°
2026-04-28 19:05 40.01147 -107.39061 22457 ft 522 kts 65°
2026-04-28 19:06 40.02355 -107.34614 21884 ft 519 kts 70°
2026-04-28 19:06 40.03005 -107.31615 21551 ft 518 kts 73°
2026-04-28 19:06 40.03892 -107.25459 20881 ft 515 kts 81°
2026-04-28 19:06 40.04331 -107.20838 20381 ft 510 kts 82°
2026-04-28 19:07 40.04787 -107.16279 19881 ft 505 kts 81°
2026-04-28 19:07 40.05253 -107.11753 19380 ft 501 kts 81°
2026-04-28 19:07 40.05715 -107.07316 18885 ft 499 kts 81°
2026-04-28 19:07 40.06190 -107.02780 18378 ft 495 kts 81°
2026-04-28 19:08 40.06652 -106.98357 17877 ft 489 kts 81°
2026-04-28 19:08 40.07110 -106.93986 17375 ft 480 kts 81°
2026-04-28 19:08 40.07555 -106.89719 16874 ft 469 kts 81°
2026-04-28 19:08 40.07975 -106.85577 16569 ft 452 kts 82°
2026-04-28 19:09 40.08205 -106.81608 16319 ft 436 kts 87°
2026-04-28 19:09 40.08118 -106.77663 16064 ft 422 kts 95°
2026-04-28 19:09 40.07766 -106.73972 15817 ft 409 kts 99°
2026-04-28 19:09 40.07321 -106.70362 15523 ft 398 kts 99°
2026-04-28 19:10 40.06920 -106.66822 15225 ft 388 kts 101°
2026-04-28 19:10 40.06113 -106.63553 15060 ft 370 kts 121°
2026-04-28 19:10 40.04611 -106.60964 14939 ft 350 kts 137°
2026-04-28 19:10 40.02828 -106.58942 14795 ft 328 kts 155°
2026-04-28 19:11 40.00779 -106.58086 14660 ft 296 kts 185°
2026-04-28 19:11 39.98856 -106.58519 14415 ft 273 kts 207°
2026-04-28 19:11 39.97059 -106.59281 14120 ft 272 kts 202°
2026-04-28 19:11 39.95342 -106.59787 13835 ft 270 kts 198°
2026-04-28 19:12 39.93508 -106.60118 13537 ft 264 kts 193°
2026-04-28 19:12 39.91710 -106.60368 13330 ft 252 kts 194°
2026-04-28 19:12 39.90038 -106.60619 13205 ft 233 kts 194°
2026-04-28 19:12 39.88478 -106.60865 13065 ft 219 kts 195°
2026-04-28 19:13 39.86988 -106.61103 12937 ft 211 kts 195°
2026-04-28 19:13 39.85549 -106.61335 12926 ft 208 kts 195°
2026-04-28 19:13 39.84107 -106.61568 12928 ft 211 kts 195°
2026-04-28 19:13 39.82631 -106.61804 12865 ft 217 kts 194°
2026-04-28 19:14 39.81130 -106.62031 12732 ft 217 kts 195°
2026-04-28 19:14 39.79634 -106.62283 12557 ft 216 kts 195°
2026-04-28 19:14 39.78148 -106.62529 12382 ft 214 kts 195°
2026-04-28 19:14 39.76683 -106.62769 12206 ft 211 kts 194°
2026-04-28 19:15 39.75228 -106.63005 12028 ft 208 kts 194°
2026-04-28 19:15 39.73798 -106.63237 11852 ft 207 kts 194°
2026-04-28 19:15 39.72374 -106.63467 11677 ft 206 kts 194°
2026-04-28 19:15 39.71915 -106.63542 11620 ft 205 kts 194°
2026-04-28 19:16 39.69703 -106.64283 11213 ft 186 kts 220°
2026-04-28 19:16 39.68779 -106.65404 11013 ft 179 kts 231°
2026-04-28 19:16 39.68009 -106.66624 10801 ft 176 kts 235°
2026-04-28 19:16 39.67293 -106.67904 10588 ft 176 kts 237°
2026-04-28 19:17 39.66698 -106.69280 10365 ft 174 kts 249°
2026-04-28 19:17 39.66410 -106.70760 10158 ft 166 kts 259°
2026-04-28 19:17 39.66284 -106.72216 9936 ft 159 kts 265°
2026-04-28 19:17 39.66260 -106.73171 9779 ft 155 kts 266°
2026-04-28 19:18 39.66160 -106.74531 9536 ft 149 kts 264°
2026-04-28 19:18 39.66026 -106.75865 9168 ft 150 kts 263°
2026-04-28 19:18 39.65848 -106.77216 8725 ft 155 kts 263°
2026-04-28 19:18 39.65666 -106.78561 8390 ft 146 kts 264°
2026-04-28 19:19 39.65511 -106.79827 8073 ft 141 kts 268°
2026-04-28 19:19 39.65399 -106.81075 7820 ft 136 kts 269°
2026-04-28 19:19 39.65322 -106.82278 7603 ft 133 kts 266°
2026-04-28 19:19 39.65172 -106.83467 7419 ft 134 kts 263°
2026-04-28 19:20 39.65062 -106.84640 7376 ft 129 kts 264°
2026-04-28 19:20 39.64930 -106.85806 7165 ft 136 kts 260°
2026-04-28 19:20 39.64785 -106.87047 7019 ft 138 kts 260°
2026-04-28 19:20 39.64637 -106.88265 6871 ft 137 kts 265°
2026-04-28 19:21 39.64506 -106.89472 6671 ft 137 kts 259°
2026-04-28 19:21 39.64378 -106.90701 6535 ft 132 kts 252°
2026-04-28 19:21 39.64255 -106.91773 6524 ft 105 kts 259°
2026-04-28 19:21 39.64180 -106.92446 6523 ft 51 kts 262°
2026-04-28 19:22 39.64140 -106.92765 6523 ft 20 kts 232°
2026-04-28 19:22 39.64062 -106.92789 6523 ft 14 kts 160°
2026-04-28 19:22 39.64050 -106.92652 6523 ft 12 kts 80°
2026-04-28 19:22 39.64061 -106.92545 6523 ft 12 kts 83°
2026-04-28 19:23 39.64073 -106.92442 6523 ft 12 kts 79°
2026-04-28 19:23 39.64091 -106.92269 6523 ft 25 kts 76°
2026-04-28 19:23 39.64118 -106.92041 6523 ft 24 kts 83°
2026-04-28 19:23 39.64134 -106.91880 6523 ft 15 kts 86°
2026-04-28 19:24 39.64147 -106.91748 6523 ft 14 kts 81°
2026-04-28 19:24 39.64162 -106.91625 6523 ft 13 kts 79°
2026-04-28 19:24 39.64177 -106.91487 6523 ft 22 kts 83°
2026-04-28 19:24 39.64202 -106.91261 6523 ft 25 kts 82°
2026-04-28 19:25 39.64225 -106.91050 6523 ft 22 kts 82°
2026-04-28 19:25 39.64244 -106.90869 6523 ft 19 kts 77°
2026-04-28 19:25 39.64261 -106.90721 6523 ft 14 kts 75°
2026-04-28 19:25 39.64268 -106.90641 6523 ft 5 kts 120°
2026-04-28 19:26 39.64234 -106.90629 6523 ft 5 kts 171°
2026-04-28 19:26 39.64199 -106.90624 6523 ft 5 kts 176°
2026-04-28 19:26 39.64184 -106.90636 6523 ft 2 kts 280°
2026-04-28 19:26 39.64186 -106.90649 6523 ft 1 kts 270°
2026-04-28 19:27 39.64186 -106.90651 6523 ft 0 kts 262°
2026-04-28 19:27 39.64186 -106.90652 6523 ft 0 kts 262°
2026-04-28 19:27 39.64185 -106.90655 6523 ft 0 kts 262°
2026-04-28 19:27 39.64185 -106.90661 6523 ft 1 kts 262°
2026-04-28 19:28 39.64184 -106.90663 6523 ft 0 kts 262°